^^
Datos históricos de la estación: Murcia-Puente Tocinos
Diario Informe para Julio 22, 2019 Unidades:  Métrico    Inglés   Ambas
Diario Semanal Mensual Anual Configurable
  Máximo: Mínimo: Media:
Temperatura: 32.7 °C 24.7 °C 28.6 °C
Punto de rocio: 19.6 °C 10.7 °C 16.9 °C
Humedad: 67% 27% 51%
Velocidad viento: 22.5km/h 0.0km/h 10.7km/h
Racha viento: 40.7km/h - -
Viento- - ESE
Presión: 1019.1 hPa 1016.2 hPa -
Precipitación: 0.0 mm    
Historical Graphs
 
 
Tabla de datos para Julio 22, 2019
Hora Temperatura Punto de rocio Presión Viento Velocidad viento Racha viento Humedad Intensidad lluvia(por hora) Nubes
00:04 26.6 °C 19.5 °C 1019.0 hPa NE 9.5 km/h 14.8 km/h 65% 0.0 mm CLR
00:09 26.5 °C 19.6 °C 1019.0 hPa NNE 8.7 km/h 16.7 km/h 66% 0.0 mm CLR
00:14 26.4 °C 19.6 °C 1019.0 hPa NE 8.7 km/h 7.4 km/h 66% 0.0 mm CLR
00:19 26.4 °C 19.6 °C 1019.0 hPa North 6.9 km/h 8.4 km/h 66% 0.0 mm CLR
00:24 26.3 °C 19.4 °C 1019.0 hPa NE 6.9 km/h 5.6 km/h 66% 0.0 mm CLR
00:29 26.3 °C 19.4 °C 1019.0 hPa North 3.9 km/h 4.7 km/h 66% 0.0 mm CLR
00:34 26.3 °C 19.4 °C 1018.9 hPa NNE 3.9 km/h 7.4 km/h 66% 0.0 mm CLR
00:39 26.3 °C 19.4 °C 1018.9 hPa NE 3.2 km/h 3.7 km/h 66% 0.0 mm CLR
00:44 26.3 °C 19.4 °C 1018.9 hPa North 3.2 km/h   66% 0.0 mm CLR
00:49 26.2 °C 19.3 °C 1019.1 hPa North 2.9 km/h 5.6 km/h 66% 0.0 mm CLR
00:54 26.3 °C 19.4 °C 1019.1 hPa NW 2.9 km/h 5.8 km/h 66% 0.0 mm CLR
00:59 26.3 °C 19.4 °C 1019.1 hPa NW 2.9 km/h 4.7 km/h 66% 0.0 mm CLR
01:04 26.2 °C 19.3 °C 1018.9 hPa NW 2.9 km/h 3.7 km/h 66% 0.0 mm CLR
01:09 26.2 °C 19.3 °C 1018.9 hPa NW 2.9 km/h 5.6 km/h 66% 0.0 mm CLR
01:14 26.2 °C 19.1 °C 1018.9 hPa NW 2.9 km/h 7.4 km/h 65% 0.0 mm CLR
01:19 26.2 °C 19.1 °C 1018.8 hPa NW 3.9 km/h 5.6 km/h 65% 0.0 mm CLR
01:24 26.2 °C 19.1 °C 1018.8 hPa NW 3.9 km/h 3.7 km/h 65% 0.0 mm CLR
01:29 26.2 °C 19.1 °C 1018.8 hPa NW 2.3 km/h   65% 0.0 mm CLR
01:34 26.2 °C 19.1 °C 1018.6 hPa NW 2.3 km/h 3.2 km/h 65% 0.0 mm CLR
01:39 26.2 °C 19.1 °C 1018.6 hPa Calm   3.7 km/h 65% 0.0 mm CLR
01:44 26.2 °C 19.1 °C 1018.6 hPa Calm     65% 0.0 mm CLR
01:49 26.2 °C 19.1 °C 1018.7 hPa Calm   5.6 km/h 65% 0.0 mm CLR
01:54 26.2 °C 19.1 °C 1018.7 hPa Calm   4.7 km/h 65% 0.0 mm CLR
01:59 26.2 °C 19.1 °C 1018.7 hPa NW 3.9 km/h 7.4 km/h 65% 0.0 mm CLR
02:04 26.2 °C 18.8 °C 1018.5 hPa WNW 3.9 km/h 5.6 km/h 64% 0.0 mm CLR
02:09 26.1 °C 18.8 °C 1018.5 hPa WNW 3.9 km/h 5.6 km/h 64% 0.0 mm CLR
02:14 26.1 °C 18.8 °C 1018.5 hPa WNW 3.9 km/h   64% 0.0 mm CLR
02:19 26.1 °C 18.8 °C 1018.4 hPa WSW 2.3 km/h 7.4 km/h 64% 0.0 mm CLR
02:24 26.2 °C 18.8 °C 1018.4 hPa WSW 2.3 km/h 7.4 km/h 64% 0.0 mm CLR
02:29 26.2 °C 18.8 °C 1018.4 hPa WSW 3.9 km/h 5.6 km/h 64% 0.0 mm CLR
02:34 26.2 °C 18.6 °C 1018.4 hPa WSW 3.9 km/h 3.9 km/h 63% 0.0 mm CLR
02:39 26.2 °C 18.6 °C 1018.4 hPa West 2.9 km/h 5.6 km/h 63% 0.0 mm CLR
02:44 26.3 °C 18.7 °C 1018.4 hPa WSW 2.9 km/h 7.4 km/h 63% 0.0 mm CLR
02:49 26.4 °C 18.6 °C 1018.2 hPa WSW 3.2 km/h 7.4 km/h 62% 0.0 mm CLR
02:54 26.4 °C 18.6 °C 1018.2 hPa WSW 3.2 km/h 5.6 km/h 62% 0.0 mm CLR
02:59 26.4 °C 18.3 °C 1018.2 hPa WSW 2.9 km/h   61% 0.0 mm CLR
03:04 26.5 °C 18.4 °C 1018.0 hPa WSW 2.9 km/h   61% 0.0 mm CLR
03:09 26.6 °C 18.7 °C 1018.0 hPa Calm     62% 0.0 mm CLR
03:14 26.6 °C 18.7 °C 1018.0 hPa Calm     62% 0.0 mm CLR
03:19 26.5 °C 18.6 °C 1018.1 hPa Calm     62% 0.0 mm CLR
03:24 26.4 °C 18.6 °C 1018.1 hPa Calm   8.4 km/h 62% 0.0 mm CLR
03:29 26.4 °C 18.8 °C 1018.1 hPa South 4.7 km/h 9.3 km/h 63% 0.0 mm CLR
03:34 26.3 °C 18.9 °C 1017.9 hPa South 4.7 km/h 9.3 km/h 64% 0.0 mm CLR
03:39 26.2 °C 19.1 °C 1017.9 hPa South 6.4 km/h 11.1 km/h 65% 0.0 mm CLR
03:44 26.1 °C 19.0 °C 1017.9 hPa South 6.4 km/h 9.3 km/h 65% 0.0 mm CLR
03:49 26.0 °C 19.2 °C 1018.1 hPa SSW 8.4 km/h 11.1 km/h 66% 0.0 mm CLR
03:54 26.0 °C 19.2 °C 1018.1 hPa SSW 8.4 km/h 9.3 km/h 66% 0.0 mm CLR
03:59 26.1 °C 19.2 °C 1018.1 hPa SW 6.4 km/h 8.4 km/h 66% 0.0 mm CLR
04:04 26.1 °C 19.2 °C 1018.0 hPa SW 6.4 km/h 9.3 km/h 66% 0.0 mm CLR
04:09 26.1 °C 19.2 °C 1018.0 hPa SW 6.9 km/h 11.1 km/h 66% 0.0 mm CLR
04:14 26.1 °C 19.2 °C 1018.0 hPa South 6.9 km/h 9.3 km/h 66% 0.0 mm CLR
04:19 26.0 °C 19.2 °C 1017.9 hPa SW 6.4 km/h 11.1 km/h 66% 0.0 mm CLR
04:24 25.9 °C 19.1 °C 1017.9 hPa SSW 6.4 km/h 9.3 km/h 66% 0.0 mm CLR
04:29 25.9 °C 19.1 °C 1017.9 hPa South 7.6 km/h 7.4 km/h 66% 0.0 mm CLR
04:34 25.8 °C 18.9 °C 1017.9 hPa SSE 7.6 km/h 3.7 km/h 66% 0.0 mm CLR
04:39 25.8 °C 18.9 °C 1017.9 hPa SSW 4.7 km/h 7.4 km/h 66% 0.0 mm CLR
04:44 25.8 °C 18.9 °C 1017.9 hPa SSW 4.7 km/h 7.4 km/h 66% 0.0 mm CLR
04:49 25.7 °C 18.9 °C 1017.8 hPa SW 5.8 km/h 7.4 km/h 66% 0.0 mm CLR
04:54 25.7 °C 19.1 °C 1017.8 hPa SSW 5.8 km/h 9.3 km/h 67% 0.0 mm CLR
04:59 25.6 °C 18.8 °C 1017.8 hPa SSW 5.8 km/h 7.4 km/h 66% 0.0 mm CLR
05:04 25.6 °C 19.0 °C 1017.7 hPa South 5.8 km/h 7.4 km/h 67% 0.0 mm CLR
05:09 25.6 °C 18.8 °C 1017.7 hPa SSW 5.0 km/h 9.3 km/h 66% 0.0 mm CLR
05:14 25.5 °C 18.7 °C 1017.7 hPa South 5.0 km/h 7.4 km/h 66% 0.0 mm CLR
05:19 25.4 °C 18.6 °C 1017.6 hPa SSW 5.8 km/h 7.6 km/h 66% 0.0 mm CLR
05:24 25.4 °C 18.6 °C 1017.6 hPa SSW 5.8 km/h 7.4 km/h 66% 0.0 mm CLR
05:29 25.4 °C 18.6 °C 1017.6 hPa SSW 6.4 km/h 9.3 km/h 66% 0.0 mm CLR
05:34 25.3 °C 18.5 °C 1017.6 hPa South 6.4 km/h 8.4 km/h 66% 0.0 mm CLR
05:39 25.3 °C 18.5 °C 1017.6 hPa South 5.8 km/h 7.4 km/h 66% 0.0 mm CLR
05:44 25.3 °C 18.5 °C 1017.6 hPa SSW 5.8 km/h 8.7 km/h 66% 0.0 mm CLR
05:49 25.2 °C 18.4 °C 1017.6 hPa SSW 5.8 km/h 7.4 km/h 66% 0.0 mm CLR
05:54 25.1 °C 18.1 °C 1017.6 hPa SSW 5.8 km/h 9.3 km/h 65% 0.0 mm CLR
05:59 25.1 °C 18.1 °C 1017.6 hPa SW 6.4 km/h 7.4 km/h 65% 0.0 mm CLR
06:04 25.1 °C 18.1 °C 1017.6 hPa SW 6.4 km/h 5.6 km/h 65% 0.0 mm CLR
06:09 25.1 °C 18.1 °C 1017.6 hPa SW 4.7 km/h 5.6 km/h 65% 0.0 mm CLR
06:14 25.1 °C 18.1 °C 1017.6 hPa SSW 4.7 km/h 7.4 km/h 65% 0.0 mm CLR
06:19 25.1 °C 18.1 °C 1017.6 hPa SSW 3.9 km/h 5.6 km/h 65% 0.0 mm CLR
06:24 25.0 °C 17.9 °C 1017.6 hPa SSW 3.9 km/h 9.3 km/h 65% 0.0 mm CLR
06:29 24.9 °C 17.9 °C 1017.6 hPa South 5.8 km/h 11.1 km/h 65% 0.0 mm CLR
06:34 24.9 °C 17.6 °C 1017.8 hPa South 5.8 km/h 13.0 km/h 64% 0.0 mm CLR
06:39 24.8 °C 17.5 °C 1017.8 hPa SW 7.6 km/h 11.1 km/h 64% 0.0 mm CLR
06:44 24.8 °C 17.5 °C 1017.8 hPa SSE 7.6 km/h 9.3 km/h 64% 0.0 mm CLR
06:49 24.7 °C 17.4 °C 1017.8 hPa SW 6.4 km/h 9.3 km/h 64% 0.0 mm CLR
06:54 24.7 °C 17.4 °C 1017.8 hPa SW 6.4 km/h 7.4 km/h 64% 0.0 mm CLR
06:59 24.7 °C 17.4 °C 1017.8 hPa SW 5.0 km/h 7.4 km/h 64% 0.0 mm CLR
07:04 24.7 °C 17.4 °C 1017.9 hPa SW 5.0 km/h 7.4 km/h 64% 0.0 mm CLR
07:09 24.7 °C 17.4 °C 1017.9 hPa SSW 5.0 km/h 9.3 km/h 64% 0.0 mm CLR
07:14 24.8 °C 17.5 °C 1017.9 hPa South 5.0 km/h 9.3 km/h 64% 0.0 mm CLR
07:19 24.8 °C 17.5 °C 1018.0 hPa SW 6.9 km/h 11.1 km/h 64% 0.0 mm CLR
07:24 24.8 °C 17.5 °C 1018.0 hPa SSW 6.9 km/h 13.0 km/h 64% 0.0 mm CLR
07:29 24.7 °C 17.4 °C 1018.0 hPa South 8.4 km/h 11.1 km/h 64% 0.0 mm CLR
07:34 24.7 °C 17.4 °C 1018.1 hPa SW 8.4 km/h 14.8 km/h 64% 0.0 mm CLR
07:39 24.7 °C 17.4 °C 1018.1 hPa South 8.4 km/h 13.0 km/h 64% 0.0 mm CLR
07:44 24.7 °C 17.7 °C 1018.1 hPa South 8.4 km/h 9.3 km/h 65% 0.0 mm CLR
07:49 24.7 °C 17.7 °C 1018.2 hPa SW 7.6 km/h 9.3 km/h 65% 0.0 mm CLR
07:54 24.7 °C 17.4 °C 1018.2 hPa WSW 7.6 km/h 9.3 km/h 64% 0.0 mm CLR
07:59 24.8 °C 17.5 °C 1018.2 hPa SW 6.4 km/h 7.4 km/h 64% 0.0 mm CLR
08:04 24.8 °C 17.3 °C 1018.3 hPa SSW 6.4 km/h 7.4 km/h 63% 0.0 mm CLR
08:09 24.9 °C 17.4 °C 1018.3 hPa South 5.0 km/h 7.4 km/h 63% 0.0 mm CLR
08:14 25.1 °C 17.6 °C 1018.3 hPa SSW 5.0 km/h 7.6 km/h 63% 0.0 mm CLR
08:19 25.2 °C 17.7 °C 1018.5 hPa SSE 5.0 km/h 9.3 km/h 63% 0.0 mm CLR
08:24 25.3 °C 17.5 °C 1018.5 hPa SSW 5.0 km/h 7.4 km/h 62% 0.0 mm CLR
08:29 25.3 °C 17.5 °C 1018.5 hPa SSW 5.0 km/h 7.6 km/h 62% 0.0 mm CLR
08:34 25.4 °C 17.3 °C 1018.6 hPa South 5.0 km/h 9.3 km/h 61% 0.0 mm CLR
08:39 25.4 °C 17.3 °C 1018.6 hPa South 5.0 km/h 7.4 km/h 61% 0.0 mm CLR
08:44 25.6 °C 17.5 °C 1018.6 hPa SSE 5.0 km/h 7.4 km/h 61% 0.0 mm CLR
08:49 25.7 °C 17.3 °C 1018.7 hPa West 4.7 km/h 5.6 km/h 60% 0.0 mm CLR
08:54 25.9 °C 17.3 °C 1018.7 hPa West 4.7 km/h 5.6 km/h 59% 0.0 mm CLR
08:59 26.1 °C 17.4 °C 1018.7 hPa South 2.9 km/h 7.4 km/h 59% 0.0 mm CLR
09:04 26.2 °C 17.0 °C 1018.8 hPa NW 2.9 km/h 5.6 km/h 57% 0.0 mm CLR
09:09 26.3 °C 17.1 °C 1018.8 hPa West 3.9 km/h 6.9 km/h 57% 0.0 mm CLR
09:14 26.4 °C 16.9 °C 1018.8 hPa NW 3.9 km/h 5.8 km/h 56% 0.0 mm CLR
09:19 26.6 °C 16.8 °C 1018.7 hPa NW 3.9 km/h 5.6 km/h 55% 0.0 mm CLR
09:24 26.8 °C 16.7 °C 1018.7 hPa WNW 3.9 km/h 7.4 km/h 54% 0.0 mm CLR
09:29 27.1 °C 17.0 °C 1018.7 hPa West 3.9 km/h 7.4 km/h 54% 0.0 mm CLR
09:34 27.2 °C 16.8 °C 1018.8 hPa West 3.9 km/h 7.4 km/h 53% 0.0 mm CLR
09:39 27.3 °C 16.9 °C 1018.8 hPa NW 4.7 km/h 5.6 km/h 53% 0.0 mm CLR
09:44 27.6 °C 17.2 °C 1018.8 hPa SE 4.7 km/h 7.4 km/h 53% 0.0 mm CLR
09:49 27.9 °C 17.4 °C 1018.8 hPa NNW 3.9 km/h 3.7 km/h 53% 0.0 mm CLR
09:54 28.2 °C 17.4 °C 1018.8 hPa NE 3.9 km/h 11.1 km/h 52% 0.0 mm CLR
09:59 28.2 °C 17.7 °C 1018.8 hPa ENE 5.8 km/h 9.3 km/h 53% 0.0 mm CLR
10:04 28.2 °C 17.7 °C 1018.8 hPa NE 5.8 km/h 18.5 km/h 53% 0.0 mm CLR
10:09 27.9 °C 17.7 °C 1018.8 hPa ENE 10.3 km/h 16.7 km/h 54% 0.0 mm CLR
10:14 28.0 °C 17.8 °C 1018.8 hPa NE 10.3 km/h 14.8 km/h 54% 0.0 mm CLR
10:19 28.1 °C 17.9 °C 1018.7 hPa NNE 9.5 km/h 15.6 km/h 54% 0.0 mm CLR
10:24 28.3 °C 17.8 °C 1018.7 hPa NE 9.5 km/h 14.8 km/h 53% 0.0 mm CLR
10:29 28.4 °C 17.6 °C 1018.7 hPa ENE 10.0 km/h 14.8 km/h 52% 0.0 mm CLR
10:34 28.5 °C 17.7 °C 1018.8 hPa North 10.0 km/h 16.1 km/h 52% 0.0 mm CLR
10:39 28.6 °C 17.8 °C 1018.8 hPa NNE 10.3 km/h 16.4 km/h 52% 0.0 mm CLR
10:44 28.6 °C 18.1 °C 1018.8 hPa North 10.3 km/h 15.6 km/h 53% 0.0 mm CLR
10:49 28.7 °C 17.6 °C 1018.7 hPa NNW 13.0 km/h 27.8 km/h 51% 0.0 mm CLR
10:54 28.9 °C 17.7 °C 1018.7 hPa NNE 13.0 km/h 22.2 km/h 51% 0.0 mm CLR
10:59 28.9 °C 18.1 °C 1018.7 hPa ENE 14.8 km/h 16.7 km/h 52% 0.0 mm CLR
11:04 29.2 °C 18.0 °C 1018.8 hPa NE 14.8 km/h 13.0 km/h 51% 0.0 mm CLR
11:09 29.3 °C 17.5 °C 1018.8 hPa NE 12.2 km/h 24.1 km/h 49% 0.0 mm CLR
11:14 29.4 °C 17.6 °C 1018.8 hPa NNE 12.2 km/h 27.0 km/h 49% 0.0 mm CLR
11:19 29.6 °C 17.4 °C 1018.8 hPa NNE 16.1 km/h 27.8 km/h 48% 0.0 mm CLR
11:24 29.7 °C 16.8 °C 1018.8 hPa NNE 16.1 km/h 22.2 km/h 46% 0.0 mm CLR
11:29 29.9 °C 15.2 °C 1018.8 hPa NE 16.4 km/h 27.8 km/h 41% 0.0 mm CLR
11:34 30.1 °C 15.0 °C 1018.8 hPa ENE 16.4 km/h 25.9 km/h 40% 0.0 mm CLR
11:39 30.2 °C 14.7 °C 1018.8 hPa East 19.0 km/h 27.8 km/h 39% 0.0 mm CLR
11:44 30.7 °C 14.3 °C 1018.8 hPa NNE 19.0 km/h 27.8 km/h 37% 0.0 mm CLR
11:49 30.9 °C 13.7 °C 1018.8 hPa ENE 16.1 km/h 22.2 km/h 35% 0.0 mm CLR
11:54 31.1 °C 13.8 °C 1018.8 hPa North 16.1 km/h 24.1 km/h 35% 0.0 mm CLR
11:59 31.1 °C 13.4 °C 1018.8 hPa NNE 16.4 km/h 22.2 km/h 34% 0.0 mm CLR
12:04 31.2 °C 13.9 °C 1018.7 hPa ENE 16.4 km/h 18.5 km/h 35% 0.0 mm CLR
12:09 31.2 °C 13.0 °C 1018.7 hPa ENE 16.1 km/h 33.3 km/h 33% 0.0 mm CLR
12:14 31.2 °C 13.5 °C 1018.7 hPa NE 16.1 km/h 18.5 km/h 34% 0.0 mm CLR
12:19 31.1 °C 13.4 °C 1018.7 hPa NE 17.2 km/h 27.8 km/h 34% 0.0 mm CLR
12:24 31.3 °C 13.1 °C 1018.7 hPa NNE 17.2 km/h 24.1 km/h 33% 0.0 mm CLR
12:29 31.4 °C 13.7 °C 1018.7 hPa East 17.2 km/h 25.9 km/h 34% 0.0 mm CLR
12:34 31.6 °C 12.9 °C 1018.5 hPa ENE 17.2 km/h 25.9 km/h 32% 0.0 mm CLR
12:39 31.8 °C 13.1 °C 1018.5 hPa NE 15.6 km/h 24.1 km/h 32% 0.0 mm CLR
12:44 31.8 °C 12.1 °C 1018.5 hPa NNE 15.6 km/h 24.1 km/h 30% 0.0 mm CLR
12:49 31.9 °C 12.2 °C 1018.4 hPa NNE 16.4 km/h 25.9 km/h 30% 0.0 mm CLR
12:54 31.8 °C 12.1 °C 1018.4 hPa ENE 16.4 km/h 24.1 km/h 30% 0.0 mm CLR
12:59 32.0 °C 10.7 °C 1018.4 hPa NNE 18.3 km/h 33.3 km/h 27% 0.0 mm CLR
13:04 32.2 °C 11.4 °C 1018.5 hPa NE 18.3 km/h 24.1 km/h 28% 0.0 mm CLR
13:09 32.3 °C 11.4 °C 1018.5 hPa ENE 16.4 km/h 27.8 km/h 28% 0.0 mm CLR
13:14 32.2 °C 11.9 °C 1018.5 hPa NE 16.4 km/h 24.5 km/h 29% 0.0 mm CLR
13:19 32.2 °C 12.9 °C 1018.5 hPa East 18.0 km/h 20.4 km/h 31% 0.0 mm CLR
13:24 32.3 °C 13.0 °C 1018.5 hPa ENE 18.0 km/h 29.6 km/h 31% 0.0 mm CLR
13:29 32.3 °C 13.5 °C 1018.5 hPa NE 16.1 km/h 23.7 km/h 32% 0.0 mm CLR
13:34 32.1 °C 13.3 °C 1018.5 hPa ENE 16.1 km/h 24.1 km/h 32% 0.0 mm CLR
13:39 32.1 °C 14.3 °C 1018.5 hPa NE 17.2 km/h 22.2 km/h 34% 0.0 mm CLR
13:44 32.1 °C 13.3 °C 1018.5 hPa NE 17.2 km/h 24.5 km/h 32% 0.0 mm CLR
13:49 31.9 °C 13.6 °C 1018.4 hPa ENE 16.1 km/h 27.8 km/h 33% 0.0 mm CLR
13:54 32.0 °C 13.7 °C 1018.4 hPa ENE 16.1 km/h 20.4 km/h 33% 0.0 mm CLR
13:59 32.0 °C 15.1 °C 1018.4 hPa NNE 17.2 km/h 22.2 km/h 36% 0.0 mm CLR
14:04 31.9 °C 14.6 °C 1018.3 hPa NE 17.2 km/h 29.6 km/h 35% 0.0 mm CLR
14:09 31.9 °C 15.0 °C 1018.3 hPa NE 19.0 km/h 27.8 km/h 36% 0.0 mm CLR
14:14 31.9 °C 15.4 °C 1018.3 hPa NE 19.0 km/h 29.6 km/h 37% 0.0 mm CLR
14:19 31.8 °C 14.9 °C 1018.2 hPa NE 18.3 km/h 27.8 km/h 36% 0.0 mm CLR
14:24 32.0 °C 15.5 °C 1018.2 hPa NNE 18.3 km/h 22.0 km/h 37% 0.0 mm CLR
14:29 31.9 °C 15.0 °C 1018.2 hPa East 18.3 km/h 22.2 km/h 36% 0.0 mm CLR
14:34 32.1 °C 15.2 °C 1018.1 hPa NE 18.3 km/h 24.1 km/h 36% 0.0 mm CLR
14:39 31.9 °C 15.4 °C 1018.1 hPa NNE 16.4 km/h 37.0 km/h 37% 0.0 mm CLR
14:44 32.1 °C 15.6 °C 1018.1 hPa NNE 16.4 km/h 25.9 km/h 37% 0.0 mm CLR
14:49 32.1 °C 15.2 °C 1017.9 hPa NE 18.3 km/h 27.8 km/h 36% 0.0 mm CLR
14:54 32.0 °C 14.6 °C 1017.9 hPa NNE 18.3 km/h 35.2 km/h 35% 0.0 mm CLR
14:59 32.1 °C 15.6 °C 1017.9 hPa NNE 20.9 km/h 33.3 km/h 37% 0.0 mm CLR
15:04 32.2 °C 15.2 °C 1017.7 hPa NNE 20.9 km/h 34.3 km/h 36% 0.0 mm CLR
15:09 32.3 °C 15.3 °C 1017.7 hPa North 21.7 km/h 27.8 km/h 36% 0.0 mm CLR
15:14 32.6 °C 15.6 °C 1017.7 hPa NE 21.7 km/h 31.5 km/h 36% 0.0 mm CLR
15:19 32.4 °C 16.3 °C 1017.5 hPa ENE 17.2 km/h 27.8 km/h 38% 0.0 mm CLR
15:24 32.4 °C 15.8 °C 1017.5 hPa NE 17.2 km/h 22.0 km/h 37% 0.0 mm CLR
15:29 32.4 °C 15.8 °C 1017.5 hPa NNE 16.1 km/h 25.9 km/h 37% 0.0 mm CLR
15:34 32.5 °C 15.9 °C 1017.4 hPa ENE 16.1 km/h 33.3 km/h 37% 0.0 mm CLR
15:39 32.6 °C 16.0 °C 1017.4 hPa NNE 16.1 km/h 22.2 km/h 37% 0.0 mm CLR
15:44 32.6 °C 16.0 °C 1017.4 hPa ESE 16.1 km/h 18.5 km/h 37% 0.0 mm CLR
15:49 32.6 °C 16.0 °C 1017.3 hPa North 17.2 km/h 33.3 km/h 37% 0.0 mm CLR
15:54 32.4 °C 15.8 °C 1017.3 hPa ENE 17.2 km/h 29.6 km/h 37% 0.0 mm CLR
15:59 32.4 °C 16.3 °C 1017.3 hPa NE 18.0 km/h 25.9 km/h 38% 0.0 mm CLR
16:04 32.6 °C 16.4 °C 1017.3 hPa ESE 18.0 km/h 33.3 km/h 38% 0.0 mm CLR
16:09 32.6 °C 16.0 °C 1017.3 hPa East 16.4 km/h 24.1 km/h 37% 0.0 mm CLR
16:14 32.5 °C 15.9 °C 1017.3 hPa ENE 16.4 km/h 24.1 km/h 37% 0.0 mm CLR
16:19 32.3 °C 15.8 °C 1017.3 hPa NE 15.6 km/h 33.3 km/h 37% 0.0 mm CLR
16:24 32.5 °C 15.1 °C 1017.3 hPa NE 15.6 km/h 29.6 km/h 35% 0.0 mm CLR
16:29 32.6 °C 15.2 °C 1017.3 hPa NE 16.4 km/h 24.5 km/h 35% 0.0 mm CLR
16:34 32.6 °C 15.2 °C 1017.2 hPa East 16.4 km/h 24.1 km/h 35% 0.0 mm CLR
16:39 32.7 °C 14.8 °C 1017.2 hPa NE 17.2 km/h 25.9 km/h 34% 0.0 mm CLR
16:44 32.6 °C 15.6 °C 1017.2 hPa NE 17.2 km/h 29.6 km/h 36% 0.0 mm CLR
16:49 32.6 °C 13.8 °C 1017.2 hPa ENE 17.2 km/h 22.2 km/h 32% 0.0 mm CLR
16:54 32.5 °C 13.7 °C 1017.2 hPa NNE 17.2 km/h 30.6 km/h 32% 0.0 mm CLR
16:59 32.7 °C 13.8 °C 1017.2 hPa NNE 20.1 km/h 34.3 km/h 32% 0.0 mm CLR
17:04 32.3 °C 14.4 °C 1017.1 hPa ENE 20.1 km/h 31.5 km/h 34% 0.0 mm CLR
17:09 32.6 °C 13.8 °C 1017.1 hPa NE 19.0 km/h 24.1 km/h 32% 0.0 mm CLR
17:14 32.7 °C 13.8 °C 1017.1 hPa NNE 19.0 km/h 27.8 km/h 32% 0.0 mm CLR
17:19 32.5 °C 13.7 °C 1016.9 hPa NNE 19.8 km/h 33.3 km/h 32% 0.0 mm CLR
17:24 32.5 °C 13.7 °C 1016.9 hPa North 19.8 km/h 29.1 km/h 32% 0.0 mm CLR
17:29 32.4 °C 14.5 °C 1016.9 hPa NE 21.7 km/h 23.3 km/h 34% 0.0 mm CLR
17:34 32.6 °C 14.2 °C 1016.8 hPa NE 21.7 km/h 22.2 km/h 33% 0.0 mm CLR
17:39 32.7 °C 14.3 °C 1016.8 hPa NE 17.2 km/h 25.9 km/h 33% 0.0 mm CLR
17:44 32.6 °C 15.6 °C 1016.8 hPa NE 17.2 km/h 30.6 km/h 36% 0.0 mm CLR
17:49 32.3 °C 16.2 °C 1016.7 hPa ENE 18.0 km/h 22.2 km/h 38% 0.0 mm CLR
17:54 32.2 °C 14.8 °C 1016.7 hPa NE 18.0 km/h 28.2 km/h 35% 0.0 mm CLR
17:59 32.1 °C 14.7 °C 1016.7 hPa East 20.1 km/h 35.2 km/h 35% 0.0 mm CLR
18:04 32.2 °C 15.2 °C 1016.5 hPa NE 20.1 km/h 27.8 km/h 36% 0.0 mm CLR
18:09 31.9 °C 15.0 °C 1016.5 hPa NE 21.7 km/h 25.9 km/h 36% 0.0 mm CLR
18:14 31.9 °C 14.6 °C 1016.5 hPa NE 21.7 km/h 33.3 km/h 35% 0.0 mm CLR
18:19 31.9 °C 15.0 °C 1016.4 hPa ENE 20.1 km/h 27.8 km/h 36% 0.0 mm CLR
18:24 32.0 °C 14.6 °C 1016.4 hPa NE 20.1 km/h 29.6 km/h 35% 0.0 mm CLR
18:29 31.9 °C 14.1 °C 1016.4 hPa NNE 20.9 km/h 30.9 km/h 34% 0.0 mm CLR
18:34 31.7 °C 13.9 °C 1016.4 hPa NE 20.9 km/h 40.7 km/h 34% 0.0 mm CLR
18:39 31.9 °C 13.6 °C 1016.4 hPa NNE 21.7 km/h 35.2 km/h 33% 0.0 mm CLR
18:44 31.8 °C 14.0 °C 1016.4 hPa NE 21.7 km/h 38.9 km/h 34% 0.0 mm CLR
18:49 31.7 °C 13.9 °C 1016.4 hPa ENE 22.5 km/h 35.2 km/h 34% 0.0 mm CLR
18:54 31.6 °C 14.3 °C 1016.4 hPa NE 22.5 km/h 31.7 km/h 35% 0.0 mm CLR
18:59 31.6 °C 14.7 °C 1016.4 hPa NE 22.0 km/h 27.8 km/h 36% 0.0 mm CLR
19:04 31.6 °C 13.8 °C 1016.2 hPa NE 22.0 km/h 35.2 km/h 34% 0.0 mm CLR
19:09 31.7 °C 14.3 °C 1016.2 hPa ENE 19.8 km/h 33.3 km/h 35% 0.0 mm CLR
19:14 31.4 °C 14.6 °C 1016.2 hPa NE 19.8 km/h 27.8 km/h 36% 0.0 mm CLR
19:19 31.4 °C 14.9 °C 1016.3 hPa ENE 20.9 km/h 33.3 km/h 37% 0.0 mm CLR
19:24 31.3 °C 14.9 °C 1016.3 hPa ENE 20.9 km/h 33.3 km/h 37% 0.0 mm CLR
19:29 31.3 °C 14.9 °C 1016.3 hPa NE 22.5 km/h 27.8 km/h 37% 0.0 mm CLR
19:34 31.2 °C 14.8 °C 1016.3 hPa NNE 22.5 km/h 31.5 km/h 37% 0.0 mm CLR
19:39 31.1 °C 14.7 °C 1016.3 hPa NE 20.1 km/h 27.8 km/h 37% 0.0 mm CLR
19:44 31.0 °C 15.8 °C 1016.3 hPa NE 20.1 km/h 24.1 km/h 40% 0.0 mm CLR
19:49 30.9 °C 16.1 °C 1016.4 hPa NE 17.2 km/h 29.6 km/h 41% 0.0 mm CLR
19:54 30.8 °C 16.4 °C 1016.4 hPa East 17.2 km/h 18.5 km/h 42% 0.0 mm CLR
19:59 30.7 °C 16.3 °C 1016.4 hPa NE 14.0 km/h 18.5 km/h 42% 0.0 mm CLR
20:04 30.6 °C 16.2 °C 1016.4 hPa ENE 14.0 km/h 20.4 km/h 42% 0.0 mm CLR
20:09 30.4 °C 16.4 °C 1016.4 hPa NE 11.9 km/h 22.2 km/h 43% 0.0 mm CLR
20:14 30.3 °C 16.3 °C 1016.4 hPa ENE 11.9 km/h 20.9 km/h 43% 0.0 mm CLR
20:19 30.2 °C 16.6 °C 1016.5 hPa NE 11.9 km/h 18.5 km/h 44% 0.0 mm CLR
20:24 30.0 °C 16.8 °C 1016.5 hPa NE 11.9 km/h 24.1 km/h 45% 0.0 mm CLR
20:29 29.9 °C 16.7 °C 1016.5 hPa ENE 13.0 km/h 17.2 km/h 45% 0.0 mm CLR
20:34 29.8 °C 16.9 °C 1016.6 hPa ENE 13.0 km/h 22.2 km/h 46% 0.0 mm CLR
20:39 29.7 °C 16.8 °C 1016.6 hPa ENE 11.9 km/h 18.5 km/h 46% 0.0 mm CLR
20:44 29.7 °C 17.2 °C 1016.6 hPa NNE 11.9 km/h 13.0 km/h 47% 0.0 mm CLR
20:49 29.6 °C 17.1 °C 1016.8 hPa East 9.5 km/h 13.0 km/h 47% 0.0 mm CLR
20:54 29.4 °C 16.9 °C 1016.8 hPa NE 9.5 km/h 14.8 km/h 47% 0.0 mm CLR
20:59 29.4 °C 17.2 °C 1016.8 hPa NE 8.7 km/h 13.0 km/h 48% 0.0 mm CLR
21:04 29.3 °C 17.5 °C 1016.9 hPa East 8.7 km/h 13.0 km/h 49% 0.0 mm CLR
21:09 29.1 °C 17.3 °C 1016.9 hPa NE 7.6 km/h 9.3 km/h 49% 0.0 mm CLR
21:14 28.9 °C 17.4 °C 1016.9 hPa NE 7.6 km/h 14.0 km/h 50% 0.0 mm CLR
21:19 28.8 °C 17.3 °C 1017.0 hPa ENE 8.7 km/h 14.8 km/h 50% 0.0 mm CLR
21:24 28.7 °C 17.6 °C 1017.0 hPa ENE 8.7 km/h 16.7 km/h 51% 0.0 mm CLR
21:29 28.6 °C 17.8 °C 1017.0 hPa NE 8.7 km/h 14.8 km/h 52% 0.0 mm CLR
21:34 28.4 °C 17.6 °C 1017.0 hPa NE 8.7 km/h 14.8 km/h 52% 0.0 mm CLR
21:39 28.3 °C 17.8 °C 1017.0 hPa NNE 8.4 km/h 7.4 km/h 53% 0.0 mm CLR
21:44 28.2 °C 18.0 °C 1017.0 hPa NE 8.4 km/h 7.6 km/h 54% 0.0 mm CLR
21:49 28.1 °C 17.9 °C 1017.1 hPa NE 6.9 km/h 13.0 km/h 54% 0.0 mm CLR
21:54 27.9 °C 18.0 °C 1017.1 hPa ENE 6.9 km/h 14.8 km/h 55% 0.0 mm CLR
21:59 27.8 °C 17.9 °C 1017.1 hPa NE 10.3 km/h 14.8 km/h 55% 0.0 mm CLR
22:04 27.8 °C 18.2 °C 1017.2 hPa NE 10.3 km/h 16.7 km/h 56% 0.0 mm CLR
22:09 27.7 °C 18.4 °C 1017.2 hPa NE 11.9 km/h 18.0 km/h 57% 0.0 mm CLR
22:14 27.5 °C 18.5 °C 1017.2 hPa ENE 11.9 km/h 20.4 km/h 58% 0.0 mm CLR
22:19 27.4 °C 18.7 °C 1017.2 hPa ENE 13.0 km/h 16.7 km/h 59% 0.0 mm CLR
22:24 27.3 °C 18.8 °C 1017.2 hPa NNE 13.0 km/h 16.7 km/h 60% 0.0 mm CLR
22:29 27.2 °C 18.8 °C 1017.2 hPa ENE 11.1 km/h 11.1 km/h 60% 0.0 mm CLR
22:34 27.1 °C 18.9 °C 1017.2 hPa NNE 11.1 km/h 16.7 km/h 61% 0.0 mm CLR
22:39 27.0 °C 18.8 °C 1017.2 hPa NE 10.0 km/h 15.6 km/h 61% 0.0 mm CLR
22:44 26.9 °C 18.7 °C 1017.2 hPa NNE 10.0 km/h 11.1 km/h 61% 0.0 mm CLR
22:49 26.9 °C 19.0 °C 1017.4 hPa NNE 8.7 km/h 7.6 km/h 62% 0.0 mm CLR
22:54 26.8 °C 18.9 °C 1017.4 hPa NE 8.7 km/h 9.3 km/h 62% 0.0 mm CLR
22:59 26.8 °C 18.9 °C 1017.4 hPa NE 6.9 km/h 13.0 km/h 62% 0.0 mm CLR
23:04 26.8 °C 18.9 °C 1017.4 hPa ENE 6.9 km/h 13.0 km/h 62% 0.0 mm CLR
23:09 26.7 °C 19.1 °C 1017.4 hPa ENE 8.4 km/h 11.1 km/h 63% 0.0 mm CLR
23:14 26.7 °C 19.1 °C 1017.4 hPa NE 8.4 km/h 7.4 km/h 63% 0.0 mm CLR
23:19 26.7 °C 19.1 °C 1017.5 hPa NW 5.8 km/h 3.9 km/h 63% 0.0 mm CLR
23:24 26.6 °C 19.0 °C 1017.5 hPa NW 5.8 km/h 3.9 km/h 63% 0.0 mm CLR
23:29 26.5 °C 19.1 °C 1017.5 hPa NW 3.2 km/h 3.2 km/h 64% 0.0 mm CLR
23:34 26.4 °C 19.1 °C 1017.5 hPa NW 3.2 km/h   64% 0.0 mm CLR
23:39 26.4 °C 19.1 °C 1017.5 hPa Calm   5.8 km/h 64% 0.0 mm CLR
23:44 26.4 °C 19.1 °C 1017.5 hPa Calm   7.4 km/h 64% 0.0 mm CLR
23:49 26.4 °C 19.1 °C 1017.5 hPa NNW 3.9 km/h 2.3 km/h 64% 0.0 mm CLR
23:54 26.4 °C 19.1 °C 1017.5 hPa NE 3.9 km/h 7.4 km/h 64% 0.0 mm CLR
23:59 26.4 °C 19.1 °C 1017.5 hPa NE 3.9 km/h 9.3 km/h 64% 0.0 mm CLR
Murcia-Puente Tocinos, España
Compliments of Weather Underground - 2.75 mb

La estación de MeteoMurcia.com, publica sus datos en los siguientes proyectos:

Weather Underground PWS IMURCIAP2 Meteoclimatic www.awekas.at

W3Counter
Web Analytics